HST
1 20580U 90037B   24141.49951781  .00008641  00000-0  41117-3 0  9996
2 20580  28.4671 170.5879 0002810  98.0074 262.0837 15.17393673672829
ISS (ZARYA)
1 25544U 98067A   24142.35003124  .00025335  00000-0  42455-3 0  9992
2 25544  51.6384  88.3676 0003163 192.6310 305.1222 15.51672766454387
CXO
1 25867U 99040B   24144.06363878  .00000674  00000-0  00000-0 0  9993
2 25867  40.5814 156.2306 8913299 294.7194   0.0380  0.37813759 14472